Regional Weather Roundup
Issued by NWS Charleston, SC

Current Version | Previous Version | Graphics & Text | Print | Product List | Glossary On
Versions: 1 2 3 4 5 6 7 8 9 10 11 12 13 14 15 16 17 18 19 20 21 22 23 24 25 26 27 28 29 30 31 32 33 34 35 36 37 38 39 40 41 42 43 44 45 46 47 48 49 50
000
ASUS42 KCHS 300625
RWRCHS

REGIONAL WEATHER ROUNDUP
NATIONAL WEATHER SERVICE CHARLESTON SC
200 AM EDT TUE SEP 30 2014

NOTE: "FAIR" INDICATES FEW OR NO CLOUDS BELOW 12,000 FEET WITH NO
SIGNIFICANT WEATHER AND/OR OBSTRUCTIONS TO VISIBILITY.

NOT ALL STATIONS ARE QUALITY CONTROLLED BY THE NATIONAL
WEATHER SERVICE. USE DATA WITH CAUTION...ESPECIALLY
DEWPOINT OBSERVATIONS.

SCZ027-030-031-034>040-042>050-300700-
...SOUTH CAROLINA...

CITY           SKY/WX    TMP DP  RH WIND       PRES   REMARKS
N CHARLESTON   CLOUDY    66  63  90 N7        29.90S
6HR MIN TEMP:  66; 6HR MAX TEMP:  69; 6HR PCP:  0.02;

WATERFRONT PRK NOT AVBL
FORT JOHNSON   NOT AVBL
MOUNT PLEASANT DRIZZLE   66  64  94 N6        29.89S
JOHNS ISLAND   MOCLDY    66  66 100 N7        29.89S
PINOPOLIS        N/A     66  63  88 NE8       29.83F
MONCKS CORNER  CLOUDY    64  64 100 N5        29.91S
SUMMERVILLE    CLOUDY    64  64 100 N5        29.92S
BEAUFORT MCAS  CLOUDY    68  65  90 N10       29.89F
6HR MIN TEMP:  67; 6HR MAX TEMP:  68; 6HR PCP: TRACE;

BEAUFORT ARPT  CLOUDY    68  66  94 N12       29.88S
HILTON HEAD IS MOCLDY    68  66  94 N9        29.89S
GEORGETOWN     NOT AVBL
WALTERBORO     CLOUDY    64 N/A N/A CALM      29.92S
ORANGEBURG     CLOUDY    63  61  93 NE5       29.93F
6HR MIN TEMP:  63; 6HR MAX TEMP:  66; 6HR PCP:  0.01;

BARNWELL       CLOUDY    64  64 100 NE6       29.93S
AIKEN          CLOUDY    66  66 100 NE6       29.97S
MANNING        CLOUDY    64 N/A N/A CALM      29.93S
KINGSTREE      NOT AVBL
COLUMBIA       CLOUDY    67  60  78 E5        29.93F
6HR MIN TEMP:  67; 6HR MAX TEMP:  70;

SUMTER         CLEAR     61  58  90 N3        29.92F
6HR MIN TEMP:  61; 6HR MAX TEMP:  68;

FLORENCE       CLEAR     62  60  93 N5        29.93F
6HR MIN TEMP:  62; 6HR MAX TEMP:  66;

MYRTLE BEACH   CLOUDY    64  61  88 N8        29.91S
N MYRTLE BEACH CLOUDY    65  62  90 N3        29.91S
6HR MIN TEMP:  63; 6HR MAX TEMP:  65; 6HR PCP:  0.07;


$$

GAZ063-065-086>088-099>101-113>116-118-119-134-136>141-150-300700-
...GEORGIA...

CITY           SKY/WX    TMP DP  RH WIND       PRES   REMARKS
SAVANNAH ARPT  CLOUDY    68  65  90 N8        29.89S
6HR MIN TEMP:  68; 6HR MAX TEMP:  70;

HUNTER AAF     CLOUDY    68  66  94 N7        29.86S
6HR MIN TEMP:  68; 6HR MAX TEMP:  70;

FORT STEWART   CLOUDY    67  66  94 N9        29.87S
6HR MIN TEMP:  67; 6HR MAX TEMP:  71;

STATESBORO     NOT AVBL
SYLVANIA       CLOUDY    69  69  98 NE5       29.91F
CLAXTON          N/A     68  68 100 NE5       29.90S
THOMSON        CLOUDY    69  69 100 CALM      29.98S
AUGUSTA-BUSH   CLOUDY    67  64  90 E3        29.92F
6HR MIN TEMP:  67; 6HR MAX TEMP:  71;

AUGUSTA-DANIEL CLOUDY    69  66  90 CALM      29.94S
SWAINSBORO     CLOUDY    68  68 100 NE3       29.92S
VIDALIA        CLOUDY    66  66 100 NE6       29.90F
ALMA           CLOUDY    68  67  96 N5        29.87F
6HR MIN TEMP:  68; 6HR MAX TEMP:  73; 6HR PCP:  0.01;

WAYCROSS       CLOUDY    72  72 100 NE8       29.86S FOG
JESUP          CLOUDY    70  70 100 NE5       29.87S FOG
BRUNSWICK      CLOUDY    72  70  94 N7        29.85S
SAINT SIMONS   CLOUDY    71  70  96 N7        29.84S
6HR MIN TEMP:  71; 6HR MAX TEMP:  73; 6HR PCP:  0.04;


$$

SCZ027-028-034-036>038-045-046-048>050-GAZ119-141-300700-
...LAKE AND SUPPLEMENTAL COASTAL OBSERVATIONS...

STATION/POSITION TIME  TEMP    WIND        PRES    WAVE   SWELL
                       AIR SEA DIR/SP/G            HT/PER HT/PER/DIR
                 (UTC) (F)     (DEG/KT/KT) (MB)    (FT/S) (FT/S/D)
UPR LAKE MARION  NOT AVBL
WINYAH BAY       0600   64     340/  6     1012.0S
LAKE MURRAY      0500   67      CALM  /  3 1013.5F
ACE BASIN NERRS  0600   66      10/  3     1012.0S
FORT PULASKI     0600   70      20/ 11/ 14 1011.7F
SAPELO ISLAND    NOT AVBL

$$

ANZ835-935-AMZ111-154-330-350-352-354-374-450-454-472-300700-
...C-MAN AND BUOY OBSERVATIONS...

STATION/POSITION TIME  TEMP    WIND        PRES    WAVE   SWELL
                       AIR SEA DIR/SP/G            HT/PER HT/PER/DIR
                 (UTC) (F)     (DEG/KT/KT) (MB)    (FT/S) (FT/S/D)
FOLLY BEACH CMAN 0600   67     360/ 10/ 12 1012.5S
BUOY 41004       0600   76 81   40/ 16/ 19 1010.1F   5/ 6   2/ 8
BUOY 41008       0600   76 79   40/ 10/ 12 1010.0F   3/ 6   3/ 60/ 6
5E ST. MARYS GA  0600      78                N/A     3/ 9
FRYING PAN BUOY  NOT AVBL
BUOY 41025       0600   70     320/ 17/ 21 1011.9F   3/ 7   2/ 50/ 7
CAPE LOOKOUT NC  0600   69     360/ 10/ 11 1012.6F
BUOY 41002       0456   79 81  220/  6/  8 1012.1F   3/ 8   3/ 90/ 8
BUOY 41010       0600   78 84  180/ 12/ 14 1010.2F   3/ 8   3/ 80/ 8
BUOY 41012       NOT AVBL
ST AUGUSTINE FL  0600   73     200/  6/  7 1010.4F
CAPERS NEARSHORE 0500   69      40/ 16/ 17   N/A
FRIPP NEARSHORE  NOT AVBL


$$



USA.gov is the U.S. government's official web portal to all federal, state and local government web resources and services.